TimeEDT,TemperatureF,Dew PointF,Humidity,Sea Level PressureIn,VisibilityMPH,Wind Direction,Wind SpeedMPH,Gust SpeedMPH,PrecipitationIn,Events,Conditions,WindDirDegrees,DateUTC
12:53 AM,72.0,70.0,93,29.92,8.0,Calm,Calm,-,N/A,,Clear,0,2013-07-08 04:53:00
1:53 AM,72.0,70.0,93,29.94,8.0,SSW,4.6,-,N/A,,Clear,200,2013-07-08 05:53:00
2:53 AM,71.1,70.0,96,29.93,7.0,Calm,Calm,-,N/A,,Clear,0,2013-07-08 06:53:00
3:53 AM,71.1,69.1,93,29.92,8.0,Calm,Calm,-,N/A,,Clear,0,2013-07-08 07:53:00
4:53 AM,71.1,69.1,93,29.93,8.0,Calm,Calm,-,N/A,,Clear,0,2013-07-08 08:53:00
5:53 AM,71.1,69.1,93,29.93,5.0,SSW,3.5,-,N/A,,Clear,210,2013-07-08 09:53:00
6:53 AM,73.9,71.1,91,29.94,10.0,SW,5.8,-,N/A,,Clear,220,2013-07-08 10:53:00
7:53 AM,79.0,68.0,69,29.95,10.0,SW,8.1,-,N/A,,Clear,230,2013-07-08 11:53:00
8:53 AM,81.0,66.9,62,29.95,10.0,West,12.7,-,N/A,,Clear,270,2013-07-08 12:53:00
9:53 AM,84.0,68.0,58,29.94,10.0,WSW,10.4,-,N/A,,Clear,250,2013-07-08 13:53:00
10:53 AM,84.9,71.1,63,29.95,10.0,West,11.5,-,N/A,,Clear,260,2013-07-08 14:53:00
11:53 AM,87.1,72.0,61,29.96,10.0,West,11.5,20.7,N/A,,Clear,260,2013-07-08 15:53:00
12:53 PM,89.1,72.0,57,29.96,10.0,Variable,5.8,-,N/A,,Clear,0,2013-07-08 16:53:00
1:53 PM,88.0,73.0,61,29.95,10.0,WSW,10.4,-,N/A,,Partly Cloudy,250,2013-07-08 17:53:00
2:53 PM,88.0,73.0,61,29.95,10.0,SSW,16.1,-,N/A,,Scattered Clouds,210,2013-07-08 18:53:00
3:53 PM,87.1,72.0,61,29.95,10.0,SW,15.0,-,N/A,,Clear,220,2013-07-08 19:53:00
4:53 PM,86.0,71.1,61,29.95,10.0,SW,12.7,-,N/A,,Clear,230,2013-07-08 20:53:00
5:53 PM,84.0,70.0,63,29.95,10.0,SW,12.7,-,N/A,,Clear,220,2013-07-08 21:53:00
6:53 PM,82.0,69.1,65,29.96,10.0,SW,9.2,-,N/A,,Clear,230,2013-07-08 22:53:00
7:53 PM,78.1,69.1,74,29.97,10.0,SW,8.1,-,N/A,,Clear,230,2013-07-08 23:53:00
8:53 PM,75.9,69.1,79,29.99,10.0,Calm,Calm,-,N/A,,Clear,0,2013-07-09 00:53:00
9:53 PM,72.0,69.1,91,30.03,8.0,Calm,Calm,-,N/A,,Mostly Cloudy,0,2013-07-09 01:53:00
10:06 PM,71.6,68.0,88,30.03,7.0,NNE,5.8,-,N/A,,Mostly Cloudy,20,2013-07-09 02:06:00
10:15 PM,71.6,68.0,88,30.03,7.0,NNE,4.6,-,N/A,,Mostly Cloudy,20,2013-07-09 02:15:00
10:53 PM,70.0,68.0,93,30.03,6.0,NNE,3.5,-,N/A,,Overcast,30,2013-07-09 02:53:00
11:53 PM,70.0,68.0,93,30.04,4.0,NNE,3.5,-,N/A,,Overcast,30,2013-07-09 03:53:00